ECO3035 SBPS-SBSV

Flight info

Callsign ECO3035
Flight time 0h 45m
Altitude 34000
Route DAKEN DCT EDNOB
Aircraft B738/M-SDE2E3FGHIRWXY/LB1

Departure

Time 2026-05-08 18:02
Airport Porto Seguro International Airport (SBPS)

Arrival

Time 2026-05-08 18:47
Airport Deputado Luiz Eduardo Magalhães International Airport (SBSV)
Time Latitude Longitude Altitude Speed Heading
2026-05-08 17:38 -16.44076 -39.08130 190 ft 0 kts 164°
2026-05-08 17:54 -16.44069 -39.08133 190 ft 2 kts 141°
2026-05-08 17:54 -16.44061 -39.08146 190 ft 2 kts 98°
2026-05-08 17:55 -16.44063 -39.08161 190 ft 2 kts 65°
2026-05-08 17:55 -16.44068 -39.08176 190 ft 2 kts 75°
2026-05-08 17:55 -16.44070 -39.08183 190 ft 0 kts 73°
2026-05-08 17:55 -16.44070 -39.08182 190 ft 0 kts 73°
2026-05-08 17:57 -16.44066 -39.08168 190 ft 4 kts 73°
2026-05-08 17:57 -16.44054 -39.08123 190 ft 9 kts 73°
2026-05-08 17:57 -16.44020 -39.08101 190 ft 8 kts 332°
2026-05-08 17:58 -16.43956 -39.08129 190 ft 3 kts 343°
2026-05-08 17:58 -16.43950 -39.08131 190 ft 3 kts 343°
2026-05-08 17:58 -16.43905 -39.08145 190 ft 9 kts 335°
2026-05-08 17:58 -16.43893 -39.08222 190 ft 14 kts 256°
2026-05-08 17:59 -16.43923 -39.08335 190 ft 18 kts 255°
2026-05-08 17:59 -16.43957 -39.08471 190 ft 20 kts 255°
2026-05-08 17:59 -16.44001 -39.08628 190 ft 24 kts 252°
2026-05-08 17:59 -16.44040 -39.08806 190 ft 25 kts 259°
2026-05-08 18:00 -16.44062 -39.08970 190 ft 12 kts 271°
2026-05-08 18:00 -16.44081 -39.08920 190 ft 0 kts 71°
2026-05-08 18:01 -16.44080 -39.08917 190 ft 8 kts 71°
2026-05-08 18:01 -16.43997 -39.08605 190 ft 79 kts 74°
2026-05-08 18:01 -16.43789 -39.07834 190 ft 138 kts 73°
2026-05-08 18:02 -16.43520 -39.06784 660 ft 148 kts 77°
2026-05-08 18:02 -16.43340 -39.06070 912 ft 163 kts 75°
2026-05-08 18:02 -16.42898 -39.04539 1726 ft 172 kts 75°
2026-05-08 18:02 -16.42543 -39.03264 1989 ft 194 kts 75°
2026-05-08 18:03 -16.42097 -39.01849 2164 ft 218 kts 64°
2026-05-08 18:03 -16.40973 -39.00689 2353 ft 239 kts 26°
2026-05-08 18:03 -16.39330 -39.00447 2819 ft 246 kts 359°
2026-05-08 18:03 -16.37614 -39.00529 3286 ft 249 kts
2026-05-08 18:04 -16.35870 -39.00449 3778 ft 250 kts
2026-05-08 18:04 -16.34141 -39.00281 4254 ft 252 kts
2026-05-08 18:04 -16.32399 -39.00085 4724 ft 254 kts
2026-05-08 18:04 -16.30634 -38.99876 5191 ft 255 kts
2026-05-08 18:05 -16.28844 -38.99661 5654 ft 257 kts
2026-05-08 18:05 -16.27069 -38.99446 6103 ft 259 kts
2026-05-08 18:05 -16.25266 -38.99227 6553 ft 261 kts
2026-05-08 18:05 -16.23478 -38.99010 6989 ft 263 kts
2026-05-08 18:06 -16.21650 -38.98788 7432 ft 264 kts
2026-05-08 18:06 -16.19822 -38.98567 7868 ft 266 kts
2026-05-08 18:06 -16.17957 -38.98340 8311 ft 268 kts
2026-05-08 18:06 -16.16097 -38.98115 8743 ft 270 kts
2026-05-08 18:07 -16.14220 -38.97887 9173 ft 272 kts
2026-05-08 18:07 -16.12316 -38.97656 9604 ft 274 kts
2026-05-08 18:07 -16.10420 -38.97426 10026 ft 276 kts
2026-05-08 18:07 -16.08509 -38.97195 10417 ft 281 kts
2026-05-08 18:08 -16.06556 -38.96957 11042 ft 285 kts
2026-05-08 18:08 -16.04552 -38.96721 11518 ft 300 kts
2026-05-08 18:08 -16.02360 -38.96578 11693 ft 326 kts
2026-05-08 18:08 -16.00014 -38.96477 11924 ft 347 kts
2026-05-08 18:09 -15.97586 -38.96372 12571 ft 353 kts
2026-05-08 18:09 -15.95113 -38.96262 13255 ft 358 kts
2026-05-08 18:09 -15.92630 -38.96148 13975 ft 362 kts
2026-05-08 18:09 -15.90085 -38.96030 14701 ft 366 kts
2026-05-08 18:10 -15.87549 -38.95911 15421 ft 370 kts
2026-05-08 18:10 -15.84956 -38.95788 16130 ft 374 kts
2026-05-08 18:10 -15.82361 -38.95665 16808 ft 378 kts
2026-05-08 18:10 -15.79707 -38.95539 17485 ft 382 kts
2026-05-08 18:11 -15.77058 -38.95413 18131 ft 386 kts
2026-05-08 18:11 -15.74379 -38.95286 18777 ft 389 kts
2026-05-08 18:11 -15.71658 -38.95156 19405 ft 393 kts
2026-05-08 18:11 -15.68905 -38.95025 20018 ft 397 kts
2026-05-08 18:12 -15.66163 -38.94895 20619 ft 400 kts
2026-05-08 18:12 -15.63364 -38.94762 21195 ft 404 kts
2026-05-08 18:12 -15.60545 -38.94629 21769 ft 407 kts
2026-05-08 18:12 -15.57730 -38.94495 22306 ft 410 kts
2026-05-08 18:13 -15.54848 -38.94358 22851 ft 414 kts
2026-05-08 18:13 -15.51999 -38.94223 23386 ft 416 kts
2026-05-08 18:13 -15.49104 -38.94085 23882 ft 420 kts
2026-05-08 18:13 -15.46176 -38.93946 24400 ft 422 kts
2026-05-08 18:14 -15.43227 -38.93806 24881 ft 426 kts
2026-05-08 18:14 -15.40264 -38.93666 25353 ft 429 kts
2026-05-08 18:14 -15.37288 -38.93525 25821 ft 432 kts
2026-05-08 18:14 -15.34265 -38.93382 26284 ft 434 kts
2026-05-08 18:15 -15.31236 -38.93237 26723 ft 437 kts
2026-05-08 18:15 -15.28201 -38.93093 27172 ft 440 kts
2026-05-08 18:15 -15.25136 -38.92948 27576 ft 443 kts
2026-05-08 18:15 -15.22049 -38.92898 27991 ft 447 kts 360°
2026-05-08 18:16 -15.18951 -38.93253 28385 ft 453 kts 351°
2026-05-08 18:16 -15.15956 -38.94176 28760 ft 459 kts 339°
2026-05-08 18:16 -15.13093 -38.95744 29135 ft 464 kts 329°
2026-05-08 18:16 -15.10455 -38.97652 29511 ft 467 kts 325°
2026-05-08 18:17 -15.07871 -38.99636 29868 ft 470 kts 324°
2026-05-08 18:17 -15.05219 -39.01684 30156 ft 474 kts 324°
2026-05-08 18:17 -15.02590 -39.03713 30513 ft 477 kts 324°
2026-05-08 18:17 -14.99946 -39.05750 30807 ft 480 kts 324°
2026-05-08 18:18 -14.97224 -39.07847 31228 ft 480 kts 325°
2026-05-08 18:18 -14.94598 -39.09869 31664 ft 480 kts 324°
2026-05-08 18:18 -14.91918 -39.11930 32088 ft 480 kts 324°
2026-05-08 18:18 -14.89237 -39.13994 32532 ft 479 kts 325°
2026-05-08 18:19 -14.86618 -39.16013 32966 ft 477 kts 325°
2026-05-08 18:19 -14.83948 -39.18068 33410 ft 476 kts 325°
2026-05-08 18:19 -14.81316 -39.20094 33825 ft 475 kts 325°
2026-05-08 18:19 -14.78676 -39.22124 34063 ft 475 kts 325°
2026-05-08 18:20 -14.73390 -39.26186 34047 ft 472 kts 325°
2026-05-08 18:20 -14.68139 -39.30223 34047 ft 470 kts 325°
2026-05-08 18:21 -14.62921 -39.34242 34045 ft 471 kts 325°
2026-05-08 18:21 -14.57665 -39.38306 34047 ft 472 kts 325°
2026-05-08 18:22 -14.52445 -39.42328 34043 ft 472 kts 325°
2026-05-08 18:22 -14.47194 -39.46366 34034 ft 472 kts 325°
2026-05-08 18:23 -14.41911 -39.50326 34023 ft 470 kts 330°
2026-05-08 18:23 -14.36031 -39.52981 34018 ft 461 kts 352°
2026-05-08 18:24 -14.29720 -39.53246 33986 ft 450 kts 11°
2026-05-08 18:24 -14.26744 -39.52546 33528 ft 439 kts 24°
2026-05-08 18:24 -14.23951 -39.51288 32746 ft 437 kts 32°
2026-05-08 18:25 -14.21388 -39.49662 32042 ft 432 kts 40°
2026-05-08 18:25 -14.19045 -39.47746 31365 ft 429 kts 44°
2026-05-08 18:25 -14.16778 -39.45785 30672 ft 429 kts 44°
2026-05-08 18:25 -14.14502 -39.43809 30055 ft 426 kts 44°
2026-05-08 18:26 -14.12247 -39.41857 29576 ft 425 kts 44°
2026-05-08 18:26 -14.09967 -39.39883 29022 ft 436 kts 43°
2026-05-08 18:26 -14.07622 -39.37855 28439 ft 436 kts 43°
2026-05-08 18:26 -14.05318 -39.35871 27877 ft 431 kts 43°
2026-05-08 18:27 -14.03062 -39.33931 27325 ft 426 kts 43°
2026-05-08 18:27 -14.01574 -39.32650 26961 ft 423 kts 43°
2026-05-08 18:27 -13.98561 -39.30059 26223 ft 418 kts 43°
2026-05-08 18:27 -13.96366 -39.28172 25677 ft 414 kts 43°
2026-05-08 18:28 -13.94163 -39.26279 25133 ft 410 kts 43°
2026-05-08 18:28 -13.91995 -39.24417 24594 ft 407 kts 43°
2026-05-08 18:28 -13.89819 -39.22549 24051 ft 403 kts 42°
2026-05-08 18:28 -13.87672 -39.20706 23510 ft 400 kts 42°
2026-05-08 18:29 -13.85578 -39.18906 22985 ft 397 kts 42°
2026-05-08 18:29 -13.83484 -39.17093 22459 ft 393 kts 42°
2026-05-08 18:29 -13.81385 -39.15275 21926 ft 390 kts 42°
2026-05-08 18:29 -13.79332 -39.13508 21405 ft 387 kts 42°
2026-05-08 18:30 -13.77276 -39.11754 20883 ft 385 kts 41°
2026-05-08 18:30 -13.75197 -39.10006 20355 ft 382 kts 41°
2026-05-08 18:30 -13.73140 -39.08300 19838 ft 379 kts 40°
2026-05-08 18:30 -13.71076 -39.06612 19317 ft 376 kts 40°
2026-05-08 18:31 -13.69024 -39.04962 18796 ft 374 kts 39°
2026-05-08 18:31 -13.66968 -39.03345 18277 ft 371 kts 39°
2026-05-08 18:31 -13.64939 -39.01752 17768 ft 368 kts 39°
2026-05-08 18:31 -13.62900 -39.00138 17254 ft 365 kts 39°
2026-05-08 18:32 -13.60919 -38.98550 16751 ft 362 kts 40°
2026-05-08 18:32 -13.58960 -38.96948 16246 ft 359 kts 40°
2026-05-08 18:32 -13.57018 -38.95334 15744 ft 356 kts 41°
2026-05-08 18:32 -13.55123 -38.93739 15244 ft 353 kts 41°
2026-05-08 18:33 -13.53223 -38.92124 14730 ft 351 kts 41°
2026-05-08 18:33 -13.51366 -38.90540 14228 ft 348 kts 41°
2026-05-08 18:33 -13.49493 -38.88941 13730 ft 345 kts 41°
2026-05-08 18:33 -13.47659 -38.87378 13243 ft 342 kts 41°
2026-05-08 18:34 -13.45825 -38.85821 12737 ft 336 kts 41°
2026-05-08 18:34 -13.44027 -38.84306 12283 ft 342 kts 40°
2026-05-08 18:34 -13.42200 -38.82779 11779 ft 334 kts 40°
2026-05-08 18:34 -13.40403 -38.81291 11289 ft 320 kts 40°
2026-05-08 18:35 -13.38717 -38.79903 10843 ft 308 kts 40°
2026-05-08 18:35 -13.37068 -38.78548 10488 ft 294 kts 40°
2026-05-08 18:35 -13.35511 -38.77271 10351 ft 275 kts 40°
2026-05-08 18:35 -13.34062 -38.76083 10263 ft 263 kts 40°
2026-05-08 18:36 -13.32627 -38.74906 10152 ft 258 kts 40°
2026-05-08 18:36 -13.31247 -38.73775 9936 ft 253 kts 40°
2026-05-08 18:36 -13.29881 -38.72656 9608 ft 252 kts 40°
2026-05-08 18:36 -13.28521 -38.71542 9296 ft 249 kts 40°
2026-05-08 18:37 -13.27177 -38.70443 8993 ft 245 kts 40°
2026-05-08 18:37 -13.25840 -38.69349 8697 ft 242 kts 40°
2026-05-08 18:37 -13.24530 -38.68277 8404 ft 240 kts 40°
2026-05-08 18:37 -13.23234 -38.67216 8110 ft 236 kts 40°
2026-05-08 18:38 -13.21944 -38.66161 7806 ft 235 kts 40°
2026-05-08 18:38 -13.20665 -38.65115 7504 ft 235 kts 40°
2026-05-08 18:38 -13.19397 -38.64077 7208 ft 234 kts 40°
2026-05-08 18:38 -13.18122 -38.63036 6917 ft 233 kts 40°
2026-05-08 18:39 -13.16861 -38.62004 6628 ft 229 kts 40°
2026-05-08 18:39 -13.15640 -38.61007 6352 ft 224 kts 40°
2026-05-08 18:39 -13.14427 -38.60016 6084 ft 223 kts 40°
2026-05-08 18:39 -13.13201 -38.59013 5807 ft 224 kts 40°
2026-05-08 18:40 -13.11987 -38.58021 5525 ft 223 kts 40°
2026-05-08 18:40 -13.10781 -38.57037 5251 ft 221 kts 40°
2026-05-08 18:40 -13.09579 -38.56055 4986 ft 220 kts 40°
2026-05-08 18:40 -13.08390 -38.55084 4873 ft 217 kts 41°
2026-05-08 18:41 -13.07204 -38.54115 4824 ft 221 kts 41°
2026-05-08 18:41 -13.05985 -38.53119 4748 ft 219 kts 40°
2026-05-08 18:41 -13.04827 -38.52195 4659 ft 209 kts 36°
2026-05-08 18:41 -13.03508 -38.51647 4463 ft 205 kts 12°
2026-05-08 18:42 -13.02122 -38.51450 4237 ft 201 kts
2026-05-08 18:42 -13.00757 -38.51268 4042 ft 199 kts 10°
2026-05-08 18:42 -12.99380 -38.51069 3821 ft 200 kts 10°
2026-05-08 18:42 -12.97996 -38.50863 3605 ft 199 kts 10°
2026-05-08 18:43 -12.96620 -38.50655 3403 ft 198 kts 11°
2026-05-08 18:43 -12.95378 -38.50307 3367 ft 183 kts 30°
2026-05-08 18:43 -12.94453 -38.49440 3229 ft 184 kts 60°
2026-05-08 18:43 -12.94031 -38.48227 2881 ft 176 kts 81°
2026-05-08 18:44 -12.93812 -38.47008 2667 ft 170 kts 82°
2026-05-08 18:44 -12.93586 -38.45849 2480 ft 165 kts 81°
2026-05-08 18:44 -12.93355 -38.44696 2265 ft 162 kts 81°
2026-05-08 18:44 -12.93136 -38.43606 2029 ft 152 kts 81°
2026-05-08 18:45 -12.92923 -38.42544 1841 ft 152 kts 81°
2026-05-08 18:45 -12.92715 -38.41507 1627 ft 146 kts 81°
2026-05-08 18:45 -12.92513 -38.40501 1438 ft 144 kts 81°
2026-05-08 18:45 -12.92312 -38.39502 1246 ft 143 kts 81°
2026-05-08 18:46 -12.92110 -38.38496 1052 ft 143 kts 81°
2026-05-08 18:46 -12.91913 -38.37513 861 ft 142 kts 81°
2026-05-08 18:46 -12.91710 -38.36506 668 ft 142 kts 81°
2026-05-08 18:46 -12.91514 -38.35529 480 ft 141 kts 81°
2026-05-08 18:47 -12.91315 -38.34538 284 ft 141 kts 81°
2026-05-08 18:47 -12.91116 -38.33565 66 ft 140 kts 81°
2026-05-08 18:47 -12.90943 -38.32632 40 ft 111 kts 71°
2026-05-08 18:47 -12.90836 -38.32123 49 ft 37 kts 78°
2026-05-08 18:48 -12.90793 -38.31920 51 ft 26 kts 76°
2026-05-08 18:48 -12.90782 -38.31750 56 ft 20 kts 118°
2026-05-08 18:48 -12.90894 -38.31727 56 ft 17 kts 229°
2026-05-08 18:48 -12.90932 -38.31848 51 ft 18 kts 257°
2026-05-08 18:49 -12.90958 -38.31977 49 ft 17 kts 259°
2026-05-08 18:49 -12.90974 -38.32090 49 ft 15 kts 261°
2026-05-08 18:49 -12.90993 -38.32201 48 ft 15 kts 258°
2026-05-08 18:49 -12.91025 -38.32314 47 ft 16 kts 256°
2026-05-08 18:50 -12.91048 -38.32435 45 ft 17 kts 257°
2026-05-08 18:50 -12.91114 -38.32527 44 ft 14 kts 206°
2026-05-08 18:50 -12.91156 -38.32619 43 ft 15 kts 259°
2026-05-08 18:50 -12.91179 -38.32738 42 ft 17 kts 259°
2026-05-08 18:51 -12.91217 -38.32845 42 ft 15 kts 214°
2026-05-08 18:51 -12.91290 -38.32849 42 ft 0 kts 169°